Weather History for Arcata, CA

Change the Weather History Date:

Tuesday, June 4, 2013

  Actual Average Record
Temperature  
Mean Temperature 49 °F -  
Max Temperature 55 °F 59 °F 70 °F (2011)
Min Temperature 44 °F 45 °F 39 °F (2001)
Degree Days  
Heating Degree Days 16    
Moisture  
Dew Point 48 °F    
Average Humidity 94    
Maximum Humidity 100    
Minimum Humidity 82    
Precipitation  
Precipitation 0.00 in - - ()
Sea Level Pressure  
Sea Level Pressure 29.94 in    
Wind  
Wind Speed 4 mph (SW)    
Max Wind Speed 13 mph    
Max Gust Speed -    
Visibility 6 miles    
Events Fog    
Averages and records for this station are not official NWS values.
T = Trace of Precipitation, MM = Missing Value Source: NWS Daily Summary

Daily Weather History Graph

Daily Weather History Graph

Search for Another Location

Airport:

Trip Planner

Search our weather history database for the weather conditions in past years. The results will help you decide how hot, cold, wet, or windy it might be!

Date:

Astronomy

Jun. 04, 2013 Rise Set
Actual Time 5:45 AM PDT 8:44 PM PDT
Civil Twilight 5:12 AM PDT 9:17 PM PDT
Nautical Twilight 4:30 AM PDT 9:59 PM PDT
Astronomical Twilight 3:41 AM PDT 10:49 PM PDT
Moon 3:19 AM PDT (6/4) 5:18 PM PDT (6/4)
Length of Visible Light 16h 05m
Length of Day
14h 59m
Waning Crescent, 13% of the Moon is Illuminated
Jun 4
Waning Crescent
Jun 8
New
Jun 16
First Quarter
Jun 23
Full
Jun 29
Last Quarter

Hourly Weather History & Observations

Time (PDT) Temp. Dew Point Humidity Pressure Visibility Wind Dir Wind Speed Gust Speed Precip Events Conditions
12:53 AM 50.0 °F 48.0 °F 93% 29.88 in 7.0 mi SE 6.9 mph - N/A   Clear
1:53 AM 50.0 °F 48.0 °F 93% 29.87 in 7.0 mi SSE 3.5 mph - N/A   Clear
2:53 AM 48.9 °F 46.9 °F 93% 29.87 in 7.0 mi SE 3.5 mph - N/A   Clear
3:53 AM 48.0 °F 46.0 °F 93% 29.87 in 7.0 mi Calm Calm - N/A   Clear
4:53 AM 45.0 °F 45.0 °F 100% 29.88 in 7.0 mi Calm Calm - N/A   Clear
5:21 AM 44.6 °F 44.6 °F 100% 29.87 in 7.0 mi Calm Calm - N/A   Mostly Cloudy
5:30 AM 46.4 °F 44.6 °F 93% 29.87 in 7.0 mi Calm Calm - N/A   Mostly Cloudy
5:53 AM 46.9 °F 46.0 °F 97% 29.89 in 8.0 mi Calm Calm - N/A   Overcast
6:53 AM 48.9 °F 48.0 °F 97% 29.90 in 4.0 mi Variable 3.5 mph - N/A   Overcast
7:17 AM 48.2 °F 48.2 °F 100% 29.89 in 1.8 mi Calm Calm - N/A   Overcast
7:28 AM 48.2 °F 48.2 °F 100% 29.89 in 1.0 mi SW 5.8 mph - N/A   Overcast
7:39 AM 48.2 °F 48.2 °F 100% 29.89 in 0.5 mi SW 5.8 mph - N/A Fog Fog
7:53 AM 48.0 °F 48.0 °F 100% 29.91 in 0.2 mi WSW 5.8 mph - N/A Fog Fog
8:18 AM 48.2 °F 48.2 °F 100% 29.90 in 0.2 mi West 3.5 mph - N/A Fog Fog
8:48 AM 48.2 °F 48.2 °F 100% 29.91 in 0.2 mi Calm Calm - N/A Fog Fog
8:53 AM 48.0 °F 48.0 °F 100% 29.93 in 0.5 mi Calm Calm - N/A Fog Fog
9:08 AM 48.2 °F 48.2 °F 100% 29.91 in 1.2 mi Calm Calm - N/A   Overcast
9:22 AM 48.2 °F 48.2 °F 100% 29.91 in 2.0 mi Calm Calm - N/A   Overcast
9:43 AM 50.0 °F 48.2 °F 94% 29.92 in 5.0 mi Calm Calm - N/A   Overcast
9:53 AM 50.0 °F 48.9 °F 96% 29.94 in 4.0 mi Calm Calm - N/A   Overcast
10:19 AM 51.8 °F 48.2 °F 88% 29.93 in 1.5 mi West 5.8 mph - N/A   Overcast
10:30 AM 50.0 °F 50.0 °F 100% 29.93 in 0.8 mi WSW 5.8 mph - N/A   Overcast
10:46 AM 50.0 °F 48.2 °F 94% 29.94 in 1.0 mi WSW 3.5 mph - N/A   Overcast
10:53 AM 51.1 °F 48.9 °F 92% 29.96 in 1.2 mi WSW 6.9 mph - N/A   Overcast
11:15 AM 51.8 °F 50.0 °F 94% 29.94 in 3.0 mi SW 6.9 mph - N/A   Overcast
11:44 AM 53.6 °F 48.2 °F 82% 29.95 in 10.0 mi SW 11.5 mph - N/A   Mostly Cloudy
11:53 AM 53.1 °F 48.9 °F 86% 29.97 in 10.0 mi WSW 10.4 mph - N/A   Mostly Cloudy
12:53 PM 53.1 °F 48.9 °F 86% 29.99 in 10.0 mi SW 12.7 mph - N/A   Mostly Cloudy
1:53 PM 53.1 °F 48.9 °F 86% 30.00 in 10.0 mi SW 11.5 mph - N/A   Mostly Cloudy
2:53 PM 54.0 °F 50.0 °F 86% 30.01 in 10.0 mi SW 11.5 mph - N/A   Overcast
3:53 PM 53.1 °F 48.9 °F 86% 30.01 in 10.0 mi SSW 10.4 mph - N/A   Overcast
4:53 PM 53.1 °F 50.0 °F 89% 30.00 in 10.0 mi SW 10.4 mph - N/A   Overcast
5:53 PM 51.1 °F 48.9 °F 92% 30.01 in 10.0 mi SW 10.4 mph - N/A   Overcast
6:53 PM 53.1 °F 50.0 °F 89% 29.99 in 10.0 mi SSE 8.1 mph - N/A   Overcast
7:53 PM 52.0 °F 48.9 °F 89% 30.00 in 10.0 mi SSW 9.2 mph - N/A   Overcast
8:53 PM 52.0 °F 48.9 °F 89% 29.99 in 10.0 mi South 8.1 mph - N/A   Overcast
9:53 PM 52.0 °F 48.9 °F 89% 30.00 in 10.0 mi South 9.2 mph - N/A   Overcast
10:53 PM 51.1 °F 48.9 °F 92% 29.99 in 10.0 mi South 8.1 mph - N/A   Overcast
11:53 PM 51.1 °F 48.9 °F 92% 29.99 in 10.0 mi South 5.8 mph - N/A   Overcast